Location: Unspecified
(37.6226°N, 0.0000°E)
Time: 14:27:45
(UTC+00:00)

Courier 1B Rocket - All Passes

Search period start: 04 April 2026 00:00
Search period end: 14 April 2026 00:00
Orbit: 920 x 1201 km, 28.2° (Epoch: 28 March)

Date Brightness Start Highest point End Pass type
(mag) Time Alt. Az. Time Alt. Az. Time Alt. Az.
4 Apr - 00:13:09 10° SSW 00:17:48 22° SSE 00:22:28 10° ESE night (unlit)
4 Apr - 02:04:52 10° WSW 02:10:26 35° S 02:16:12 10° ESE visible
4 Apr - 03:57:40 10° WSW 04:03:15 32° S 04:09:07 10° SE visible
4 Apr - 05:51:36 10° WSW 05:55:59 19° SSW 06:00:33 10° SSE daylight
4 Apr - 23:12:59 10° SSW 23:16:52 17° SSE 23:20:42 10° ESE night (unlit)
5 Apr - 01:04:01 10° SW 01:09:26 31° S 01:14:56 10° ESE night (unlit)
5 Apr - 02:56:36 10° WSW 03:02:12 35° S 03:08:02 10° ESE visible
5 Apr - 04:50:03 10° WSW 04:54:57 23° SSW 05:00:05 10° SSE visible
5 Apr - 22:13:32 10° S 22:15:56 12° SSE 22:18:19 10° SE night (unlit)
6 Apr - 00:03:18 10° SW 00:08:27 27° SSE 00:13:36 10° ESE night (unlit)
6 Apr - 01:55:34 10° WSW 02:01:10 35° S 02:06:54 10° ESE visible
6 Apr - 03:48:42 10° WSW 03:53:56 27° SSW 03:59:21 10° SE visible
6 Apr - 05:43:48 10° SW 05:46:33 13° SSW 05:49:22 10° S daylight
6 Apr - 23:02:43 10° SSW 23:07:29 22° SSE 23:12:11 10° ESE night (unlit)
7 Apr - 00:54:35 10° WSW 01:00:09 34° S 01:05:45 10° ESE night (unlit)
7 Apr - 02:47:30 10° WSW 02:52:55 31° S 02:58:29 10° SE visible
7 Apr - 04:41:34 10° WSW 04:45:34 17° SSW 04:49:40 10° SSE visible
7 Apr - 22:02:25 10° SSW 22:06:31 18° SSE 22:10:33 10° ESE night (unlit)
7 Apr - 23:53:40 10° SW 23:59:09 32° S 00:04:34 10° ESE night (unlit)
8 Apr - 01:46:22 10° WSW 01:51:54 34° S 01:57:30 10° ESE visible
8 Apr - 03:39:55 10° WSW 03:44:35 22° SSW 03:49:21 10° SSE visible
8 Apr - 21:02:40 10° S 21:05:33 13° SSE 21:08:24 10° SE visible
8 Apr - 22:52:49 10° SW 22:58:09 28° SSE 23:03:20 10° ESE night (unlit)
9 Apr - 00:45:15 10° WSW 00:50:53 35° S 00:56:30 10° ESE night (unlit)
9 Apr - 02:38:31 10° WSW 02:43:36 26° SSW 02:48:46 10° SE visible
9 Apr - 04:34:02 10° SW 04:36:09 12° SSW 04:38:17 10° S visible
9 Apr - 21:52:07 10° SSW 21:57:09 23° SSE 22:02:01 10° ESE night (unlit)
9 Apr - 23:44:10 10° WSW 23:49:52 35° S 23:55:26 10° ESE night (unlit)
10 Apr - 01:37:14 10° WSW 01:42:37 31° S 01:48:00 10° SE night (unlit)
10 Apr - 03:31:30 10° WSW 03:35:11 16° SSW 03:38:57 10° SSE visible
10 Apr - 20:51:39 10° SSW 20:56:09 19° SSE 21:00:28 10° ESE visible
10 Apr - 22:43:08 10° SW 22:48:50 32° S 22:54:21 10° ESE night (unlit)
11 Apr - 00:36:00 10° WSW 00:41:37 34° S 00:47:09 10° ESE night (unlit)
11 Apr - 02:29:43 10° WSW 02:34:15 21° SSW 02:38:49 10° SSE visible
11 Apr - 19:51:39 10° S 19:55:07 14° SSE 19:58:30 10° SE visible
11 Apr - 21:42:11 10° SW 21:47:48 29° SSE 21:53:11 10° ESE visible
11 Apr - 23:34:47 10° WSW 23:40:36 36° S 23:46:13 10° ESE night (unlit)
12 Apr - 01:28:12 10° WSW 01:33:17 26° SSW 01:38:22 10° SE night (unlit)
12 Apr - 03:24:12 10° SW 03:25:47 11° SSW 03:27:21 10° SSW visible
12 Apr - 18:53:31 10° SSE 18:54:05 10° SSE 18:54:39 10° SSE visible
12 Apr - 20:41:21 10° SW 20:46:45 25° SSE 20:51:54 10° ESE visible
12 Apr - 22:33:36 10° WSW 22:39:33 36° S 22:45:14 10° ESE visible
13 Apr - 00:26:50 10° WSW 00:32:19 31° S 00:37:42 10° SE night (unlit)
13 Apr - 02:21:18 10° WSW 02:24:52 16° SSW 02:28:26 10° SSE night (unlit)
13 Apr - 19:40:44 10° SSW 19:45:41 20° SSE 19:50:25 10° ESE visible
13 Apr - 21:32:27 10° SW 21:38:29 34° S 21:44:11 10° ESE visible
13 Apr - 23:25:29 10° WSW 23:31:18 34° S 23:36:55 10° ESE night (unlit)
